Torna al catalogo

COSMOS 2251 DEB

AttivoLEO
NORAD 35979·DEBRIS·🇷🇺 Russia

Lanciato Jun 16, 1993 da Plesetsk Cosmodrome

Loading…

Prossimi Passaggi (prossime 24 ore)

TLE

ObsoletoSource: Space-Track

Epoca: Sep 4, 2026, 19:03 UTC

1 35979U 93036AVV 26247.79389509  .00002474  00000-0  34489-3 0  9993
2 35979  74.0067  76.6320 0057887 143.8202 228.3035 14.77161061925595

Traccia COSMOS 2251 DEB in tempo reale con AllMySat

Download on the App Store